TimeEST,TemperatureF,Dew PointF,Humidity,Sea Level PressureIn,VisibilityMPH,Wind Direction,Wind SpeedMPH,Gust SpeedMPH,PrecipitationIn,Events,Conditions,WindDirDegrees,DateUTC
12:31 AM,33.8,30.2,87,30.23,7.0,Calm,Calm,-,N/A,,Overcast,0,2013-02-23 05:31:00
12:39 AM,33.8,32.0,93,30.22,5.0,Calm,Calm,-,N/A,,Overcast,0,2013-02-23 05:39:00
12:42 AM,33.8,32.0,93,30.22,5.0,Calm,Calm,-,N/A,,Overcast,0,2013-02-23 05:42:00
12:48 AM,33.8,32.0,93,30.22,5.0,Calm,Calm,-,N/A,,Overcast,0,2013-02-23 05:48:00
12:53 AM,33.8,32.0,93,30.22,4.0,Calm,Calm,-,N/A,,Overcast,0,2013-02-23 05:53:00
12:55 AM,32.9,31.5,94,30.22,4.0,Calm,Calm,-,0.00,,Overcast,0,2013-02-23 05:55:00
1:26 AM,33.8,32.0,93,30.21,3.0,Calm,Calm,-,N/A,,Overcast,0,2013-02-23 06:26:00
1:41 AM,33.8,32.0,93,30.21,3.0,Calm,Calm,-,N/A,,Overcast,0,2013-02-23 06:41:00
1:55 AM,33.3,31.8,94,30.20,3.0,Calm,Calm,-,0.00,,Overcast,0,2013-02-23 06:55:00
2:02 AM,33.8,32.0,93,30.19,3.0,Calm,Calm,-,N/A,,Overcast,0,2013-02-23 07:02:00
2:28 AM,33.8,32.0,93,30.19,3.0,Calm,Calm,-,N/A,,Overcast,0,2013-02-23 07:28:00
2:34 AM,33.8,32.0,93,30.18,2.5,Calm,Calm,-,N/A,,Overcast,0,2013-02-23 07:34:00
2:46 AM,33.8,32.0,93,30.19,3.0,Calm,Calm,-,N/A,,Overcast,0,2013-02-23 07:46:00
2:54 AM,33.8,32.0,93,30.18,3.0,Calm,Calm,-,N/A,,Overcast,0,2013-02-23 07:54:00
2:55 AM,33.4,32.4,96,30.18,3.0,Calm,Calm,-,0.00,,Overcast,0,2013-02-23 07:55:00
3:22 AM,33.8,32.0,93,30.17,2.5,Calm,Calm,-,N/A,,Overcast,0,2013-02-23 08:22:00
3:26 AM,33.8,32.0,93,30.17,2.5,Calm,Calm,-,N/A,,Overcast,0,2013-02-23 08:26:00
3:39 AM,33.8,32.0,93,30.15,2.0,Calm,Calm,-,N/A,,Overcast,0,2013-02-23 08:39:00
3:41 AM,33.8,32.0,93,30.15,2.0,Calm,Calm,-,N/A,,Overcast,0,2013-02-23 08:41:00
3:45 AM,33.8,32.0,93,30.14,1.8,Calm,Calm,-,N/A,,Overcast,0,2013-02-23 08:45:00
3:47 AM,33.8,32.0,93,30.14,1.8,Calm,Calm,-,N/A,,Overcast,0,2013-02-23 08:47:00
3:48 AM,33.8,32.0,93,30.13,1.5,Calm,Calm,-,N/A,,Overcast,0,2013-02-23 08:48:00
3:50 AM,33.8,32.0,93,30.13,1.8,Calm,Calm,-,N/A,,Overcast,0,2013-02-23 08:50:00
3:53 AM,33.8,32.0,93,30.13,1.8,Calm,Calm,-,N/A,,Overcast,0,2013-02-23 08:53:00
3:54 AM,33.8,32.0,93,30.14,2.0,Calm,Calm,-,N/A,,Overcast,0,2013-02-23 08:54:00
3:55 AM,33.4,32.5,96,30.14,2.0,Calm,Calm,-,0.00,,Overcast,0,2013-02-23 08:55:00
3:57 AM,33.8,32.0,93,30.14,2.5,Calm,Calm,-,N/A,,Overcast,0,2013-02-23 08:57:00
4:06 AM,33.8,32.0,93,30.14,3.0,Calm,Calm,-,N/A,,Overcast,0,2013-02-23 09:06:00
4:08 AM,33.8,32.0,93,30.13,2.5,Calm,Calm,-,N/A,,Overcast,0,2013-02-23 09:08:00
4:11 AM,33.8,32.0,93,30.13,2.5,Calm,Calm,-,N/A,,Overcast,0,2013-02-23 09:11:00
4:19 AM,33.8,33.8,100,30.14,3.0,Calm,Calm,-,N/A,,Overcast,0,2013-02-23 09:19:00
4:55 AM,34.2,33.3,97,30.13,5.0,Calm,Calm,-,N/A,,Overcast,0,2013-02-23 09:55:00
5:20 AM,35.6,33.8,93,30.14,7.0,NW,3.5,-,N/A,,Overcast,320,2013-02-23 10:20:00
5:41 AM,35.6,33.8,93,30.13,4.0,Calm,Calm,-,N/A,,Overcast,0,2013-02-23 10:41:00
5:44 AM,35.6,33.8,93,30.12,3.0,Calm,Calm,-,N/A,,Overcast,0,2013-02-23 10:44:00
5:46 AM,33.8,33.8,100,30.12,2.5,Calm,Calm,-,N/A,,Overcast,0,2013-02-23 10:46:00
5:49 AM,33.8,33.8,100,30.11,2.0,Calm,Calm,-,N/A,,Overcast,0,2013-02-23 10:49:00
5:51 AM,33.8,33.8,100,30.10,1.8,Calm,Calm,-,N/A,,Overcast,0,2013-02-23 10:51:00
5:53 AM,33.8,33.8,100,30.10,1.5,Calm,Calm,-,N/A,,Overcast,0,2013-02-23 10:53:00
5:55 AM,34.3,33.1,95,30.10,1.5,Calm,Calm,-,0.00,,Overcast,0,2013-02-23 10:55:00
6:00 AM,33.8,33.8,100,30.10,1.8,Calm,Calm,-,N/A,,Overcast,0,2013-02-23 11:00:00
6:02 AM,33.8,33.8,100,30.10,2.0,Calm,Calm,-,N/A,,Overcast,0,2013-02-23 11:02:00
6:03 AM,33.8,33.8,100,30.11,2.5,Calm,Calm,-,N/A,,Overcast,0,2013-02-23 11:03:00
6:05 AM,33.8,33.8,100,30.11,3.0,Calm,Calm,-,N/A,,Overcast,0,2013-02-23 11:05:00
6:06 AM,33.8,33.8,100,30.11,3.0,Calm,Calm,-,N/A,,Overcast,0,2013-02-23 11:06:00
6:10 AM,33.8,33.8,100,30.11,3.0,Calm,Calm,-,N/A,,Overcast,0,2013-02-23 11:10:00
6:34 AM,33.8,33.8,100,30.08,4.0,Calm,Calm,-,N/A,,Overcast,0,2013-02-23 11:34:00
6:53 AM,35.6,33.8,93,30.08,5.0,Calm,Calm,-,N/A,,Overcast,0,2013-02-23 11:53:00
6:55 AM,34.9,33.8,96,30.08,5.0,Calm,Calm,-,0.00,,Overcast,0,2013-02-23 11:55:00
7:21 AM,35.6,33.8,93,30.10,7.0,NW,4.6,-,N/A,,Overcast,320,2013-02-23 12:21:00
7:55 AM,35.8,34.0,93,30.09,4.0,NW,4.6,-,0.00,,Overcast,320,2013-02-23 12:55:00
8:03 AM,35.6,33.8,93,30.09,2.5,NW,4.6,-,N/A,,Overcast,320,2013-02-23 13:03:00
8:08 AM,35.6,33.8,93,30.09,2.0,NNW,3.5,-,N/A,,Light Drizzle,340,2013-02-23 13:08:00
8:13 AM,35.6,33.8,93,30.08,2.0,Calm,Calm,-,N/A,,Light Drizzle,0,2013-02-23 13:13:00
8:17 AM,35.6,33.8,93,30.08,1.8,Calm,Calm,-,N/A,,Light Drizzle,0,2013-02-23 13:17:00
8:32 AM,35.6,33.8,93,30.07,2.0,NNW,5.8,-,N/A,,Light Drizzle,340,2013-02-23 13:32:00
8:36 AM,35.6,33.8,93,30.06,2.5,North,5.8,-,N/A,,Light Drizzle,360,2013-02-23 13:36:00
8:38 AM,35.6,33.8,93,30.06,2.5,North,3.5,-,N/A,,Overcast,360,2013-02-23 13:38:00
8:43 AM,35.6,33.8,93,30.06,2.0,Calm,Calm,-,N/A,,Overcast,0,2013-02-23 13:43:00
8:55 AM,36.0,34.7,95,30.06,2.0,NNW,3.5,-,0.00,,Overcast,340,2013-02-23 13:55:00
9:08 AM,35.6,33.8,93,30.06,2.5,Variable,3.5,-,N/A,,Overcast,0,2013-02-23 14:08:00
9:11 AM,35.6,33.8,93,30.06,2.5,Variable,3.5,-,N/A,,Overcast,0,2013-02-23 14:11:00
9:12 AM,35.6,33.8,93,30.05,2.5,NNW,3.5,-,N/A,,Overcast,340,2013-02-23 14:12:00
9:16 AM,35.6,33.8,93,30.05,2.5,North,3.5,-,N/A,,Overcast,350,2013-02-23 14:16:00
9:17 AM,35.6,33.8,93,30.05,2.5,Calm,Calm,-,N/A,,Overcast,0,2013-02-23 14:17:00
9:19 AM,35.6,33.8,93,30.05,2.5,NNW,4.6,-,N/A,,Overcast,340,2013-02-23 14:19:00
9:29 AM,35.6,35.6,100,30.04,2.0,NNW,4.6,-,N/A,Rain,Light Rain,340,2013-02-23 14:29:00
9:42 AM,35.6,35.6,100,30.03,2.5,NNW,4.6,-,N/A,Rain,Light Rain,340,2013-02-23 14:42:00
9:49 AM,37.4,35.6,93,30.03,3.0,NW,4.6,-,N/A,Rain,Light Rain,320,2013-02-23 14:49:00
9:52 AM,37.4,35.6,93,30.03,3.0,Variable,4.6,-,N/A,,Overcast,0,2013-02-23 14:52:00
9:55 AM,36.7,35.1,94,30.02,3.0,NW,4.6,-,0.00,,Overcast,320,2013-02-23 14:55:00
10:30 AM,37.4,35.6,93,30.01,3.0,NW,3.5,-,N/A,,Overcast,320,2013-02-23 15:30:00
10:34 AM,37.4,35.6,93,30.01,2.5,NNW,4.6,-,N/A,,Overcast,330,2013-02-23 15:34:00
10:51 AM,37.4,37.4,100,30.00,2.5,Calm,Calm,-,N/A,,Overcast,0,2013-02-23 15:51:00
10:55 AM,38.3,37.0,95,30.00,2.5,Calm,Calm,-,0.00,,Overcast,0,2013-02-23 15:55:00
10:59 AM,39.2,37.4,93,29.99,2.0,Calm,Calm,-,N/A,,Overcast,0,2013-02-23 15:59:00
11:01 AM,39.2,37.4,93,29.99,2.5,Variable,3.5,-,N/A,,Overcast,0,2013-02-23 16:01:00
11:07 AM,39.2,37.4,93,29.99,3.0,North,4.6,-,N/A,,Overcast,350,2013-02-23 16:07:00
11:26 AM,39.2,37.4,93,29.99,3.0,Variable,4.6,-,N/A,,Overcast,0,2013-02-23 16:26:00
11:36 AM,39.2,37.4,93,29.98,2.5,NW,8.1,-,N/A,,Overcast,310,2013-02-23 16:36:00
11:39 AM,39.2,37.4,93,29.98,2.5,NW,6.9,-,N/A,,Overcast,310,2013-02-23 16:39:00
11:54 AM,39.2,37.4,93,29.99,2.5,NW,9.2,-,N/A,,Overcast,320,2013-02-23 16:54:00
11:55 AM,39.0,37.4,94,29.99,2.5,NW,8.1,-,0.00,,Overcast,320,2013-02-23 16:55:00
11:58 AM,39.2,37.4,93,29.99,3.0,NW,8.1,-,N/A,,Overcast,320,2013-02-23 16:58:00
12:04 PM,39.2,37.4,93,29.98,3.0,NW,8.1,-,N/A,,Overcast,320,2013-02-23 17:04:00
12:55 PM,39.9,38.3,94,29.96,5.0,WNW,8.1,-,0.00,,Overcast,300,2013-02-23 17:55:00
1:05 PM,39.2,37.4,93,29.96,6.0,NW,8.1,-,N/A,,Overcast,320,2013-02-23 18:05:00
1:55 PM,41.2,39.2,93,29.93,10.0,NW,5.8,-,N/A,,Overcast,320,2013-02-23 18:55:00
2:08 PM,41.0,39.2,93,29.93,10.0,Variable,5.8,-,N/A,,Overcast,0,2013-02-23 19:08:00
2:34 PM,42.8,39.2,87,29.92,10.0,Calm,Calm,-,N/A,,Overcast,0,2013-02-23 19:34:00
2:55 PM,43.7,40.6,89,29.91,10.0,Calm,Calm,-,N/A,,Overcast,0,2013-02-23 19:55:00
3:19 PM,44.6,41.0,87,29.91,10.0,Calm,Calm,-,N/A,,Overcast,0,2013-02-23 20:19:00
3:55 PM,45.7,42.1,87,29.89,10.0,North,3.5,-,N/A,,Overcast,350,2013-02-23 20:55:00
4:55 PM,46.2,42.6,87,29.88,10.0,Calm,Calm,-,N/A,,Overcast,0,2013-02-23 21:55:00
5:19 PM,46.4,42.8,87,29.88,10.0,Calm,Calm,-,N/A,,Overcast,0,2013-02-23 22:19:00
5:55 PM,45.5,42.8,90,29.88,10.0,NW,4.6,-,N/A,,Overcast,310,2013-02-23 22:55:00
6:26 PM,44.6,42.8,93,29.88,10.0,NW,5.8,-,N/A,,Overcast,310,2013-02-23 23:26:00
6:49 PM,44.6,42.8,93,29.88,10.0,NW,3.5,-,N/A,,Overcast,320,2013-02-23 23:49:00
6:55 PM,45.0,42.6,91,29.88,10.0,Calm,Calm,-,N/A,,Overcast,0,2013-02-23 23:55:00
7:55 PM,45.0,42.6,91,29.86,10.0,NNW,3.5,-,N/A,,Overcast,340,2013-02-24 00:55:00
8:43 PM,44.6,42.8,93,29.86,9.0,NW,5.8,-,N/A,,Overcast,310,2013-02-24 01:43:00
8:55 PM,44.4,42.3,92,29.86,7.0,NW,5.8,-,N/A,,Overcast,310,2013-02-24 01:55:00
9:19 PM,44.6,42.8,93,29.85,7.0,NW,4.6,-,N/A,,Overcast,310,2013-02-24 02:19:00
9:55 PM,44.1,42.3,93,29.85,6.0,WNW,5.8,-,N/A,,Overcast,300,2013-02-24 02:55:00
10:05 PM,44.6,42.8,93,29.84,6.0,NW,4.6,-,N/A,,Overcast,310,2013-02-24 03:05:00
10:55 PM,44.2,42.4,93,29.83,7.0,NNW,3.5,-,N/A,,Overcast,330,2013-02-24 03:55:00
10:57 PM,44.6,42.8,93,29.83,7.0,North,3.5,-,N/A,,Overcast,350,2013-02-24 03:57:00
11:00 PM,44.6,42.8,93,29.83,7.0,Calm,Calm,-,N/A,,Overcast,0,2013-02-24 04:00:00
11:37 PM,44.6,42.8,93,29.84,10.0,NW,5.8,-,N/A,,Overcast,320,2013-02-24 04:37:00
11:55 PM,44.4,41.7,90,29.84,10.0,NW,4.6,-,N/A,,Overcast,320,2013-02-24 04:55:00